Regional Weather Roundup
Issued by NWS Raleigh/Durham, NC

Home | Current Version | Previous Version | Text Only | Print | Product List | Glossary On
Versions: 1 2 3 4 5 6 7 8 9 10 11 12 13 14 15 16 17 18 19 20 21 22 23 24 25 26 27 28 29 30 31 32 33 34 35 36 37 38 39 40 41 42 43 44 45 46 47 48 49 50
000
ASUS42 KRAH 260910
RWRRAH
NORTH CAROLINA WEATHER ROUNDUP
NATIONAL WEATHER SERVICE RALEIGH NC
500 AM EDT SUN MAR 26 2017

NOTE: "FAIR" INDICATES FEW OR NO CLOUDS BELOW 12,000 FEET WITH NO
SIGNIFICANT WEATHER AND/OR OBSTRUCTIONS TO VISIBILITY.

NCZ001-053-055-056-065-067-261000-
WESTERN NORTH CAROLINA

CITY           SKY/WX    TMP DP  RH WIND       PRES   REMARKS
ASHEVILLE      CLOUDY    57  49  74 S10       30.14F
JEFFERSON      CLOUDY    51  47  86 S7G18     30.14F
MORGANTON      CLOUDY    57  51  82 CALM      30.19F
HICKORY        CLOUDY    56  51  84 S5        30.15F
RUTHERFORDTON  CLOUDY    56  52  88 SE3       30.16F
MOUNT AIRY     CLOUDY    55  50  85 CALM      30.18F
BOONE          CLOUDY    52  47  82 N3        30.16F
$$

NCZ021-022-025-041-071-084-088-261000-
CENTRAL NORTH CAROLINA

CITY           SKY/WX    TMP DP  RH WIND       PRES   REMARKS
CHARLOTTE      CLOUDY    55  51  86 SE5       30.16F
GREENSBORO     MOCLDY    56  53  90 S5        30.17F
WINSTON-SALEM  CLOUDY    57  51  80 VRB5      30.18F
RALEIGH-DURHAM PTCLDY    56  51  84 CALM      30.20S
FORT BRAGG     CLEAR     53  52  97 CALM      30.19S
FAYETTEVILLE   CLEAR     54  52  93 CALM      30.19S
BURLINGTON     CLOUDY    52  50  93 CALM      30.18S
LAURINBURG       N/A    N/A N/A N/A MISG      30.20R
$$

NCZ011-015-027-028-043-044-047-080-103-261000-
NORTHEASTERN NORTH CAROLINA

CITY           SKY/WX    TMP DP  RH WIND       PRES   REMARKS
ROCKY MT-WILSO CLEAR     48  48 100 CALM      30.21S
GREENVILLE     CLEAR     54  52  94 CALM      30.24R FOG
WASHINGTON     PTCLDY    53  52  97 CALM      30.24R
ELIZABETH CITY CLOUDY    52  51  97 CALM      30.24R
MANTEO         CLOUDY    55  54  97 CALM      30.24R
CAPE HATTERAS  CLOUDY    60  55  83 CALM      30.23S
$$

NCZ078-087-090-091-093-098-101-261000-
SOUTHEASTERN NORTH CAROLINA

CITY           SKY/WX    TMP DP  RH WIND       PRES   REMARKS
LUMBERTON      CLEAR     51  50  96 CALM      30.19S
GOLDSBORO      CLEAR     55  55 100 SE3       30.20S
KINSTON        CLEAR     52  51  97 CALM      30.22S
KENANSVILLE    FOG       50  50 100 CALM      30.22S VSB 3/4
NEW BERN       FOG       49  49 100 CALM      30.23S VSB 3/4
CHERRY POINT   NOT AVBL
BEAUFORT       CLOUDY    60  56  86 CALM      30.22S
JACKSONVILLE   FOG       52  51  97 CALM      30.21S VSB 1
WILMINGTON     MOCLDY    54  54 100 CALM      30.21R
$$




USA.gov is the U.S. government's official web portal to all federal, state and local government web resources and services.